Tucson, AZ

4:16 PM MST on April 24, 2018 (GMT -0700)
Tucson International

Weather History for KTUS - July, 2012

Change the Weather History Date:

Saturday, July 28, 2012

  Actual Average Record
Temperature  
Mean Temperature 84 °F 86 °F  
Max Temperature 94 °F 98 °F 114 °F (1995)
Min Temperature 73 °F 74 °F 62 °F (1913)
Degree Days  
Heating Degree Days 0 0  
Month to date heating degree days 0 0  
Since 1 June heating degree days 0 0  
Since 1 July heating degree days 0 0  
Cooling Degree Days 19 21  
Month to date cooling degree days 593 623  
Year to date cooling degree days 1962 1719  
Since 1 June cooling degree days 1285 1217  
Growing Degree Days 33 (Base 50)    
Moisture  
Dew Point 67 °F    
Average Humidity 66    
Maximum Humidity 93    
Minimum Humidity 38    
Precipitation  
Precipitation 0.05 in 0.10 in 1.88 in (1921)
Month to date precipitation 4.13 1.96  
Year to date precipitation 5.15 5.23  
Snow  
Snow 0.00 in - - ()
Month to date snowfall 0.0  
Snow Depth 0.00 in    
Sea Level Pressure  
Sea Level Pressure 29.91 in    
Wind  
Wind Speed 6 mph (South)    
Max Wind Speed 32 mph    
Max Gust Speed 41 mph    
Visibility 10 miles    
Events Rain , Thunderstorm    
T = Trace of Precipitation, MM = Missing Value Source: NWS Daily Summary

Daily Weather History Graph

Daily Weather History Graph

Search for Another Location

Airport or City:

Astronomy

Jul. 28, 2012 Rise Set
Actual Time 5:36 AM MST 7:23 PM MST
Civil Twilight 5:09 AM MST 7:50 PM MST
Nautical Twilight 4:37 AM MST 8:22 PM MST
Astronomical Twilight 4:02 AM MST 8:56 PM MST
Moon 3:28 PM MST (7/28) 1:01 AM MST (7/28)
Length of Visible Light 14h 40m
Length of Day
13h 46m
Waxing Gibbous, 77% of the Moon is Illuminated
Jul 28
Waxing Gibbous
Aug 1
Full
Aug 9
Last Quarter
Aug 17
New
Aug 24
First Quarter

Hourly Weather History & Observations

Time (MST) Temp. Heat Index Dew Point Humidity Pressure Visibility Wind Dir Wind Speed Gust Speed Precip Events Conditions
12:53 AM 77.0 °F - 66.9 °F 71% 29.86 in 10.0 mi SSE 13.8 mph - 0.00 in   Partly Cloudy
1:53 AM 75.9 °F - 66.0 °F 71% 29.85 in 10.0 mi SSE 8.1 mph - N/A   Mostly Cloudy
2:53 AM 75.0 °F - 66.9 °F 76% 29.85 in 10.0 mi SSE 6.9 mph - N/A   Partly Cloudy
3:53 AM 75.9 °F - 66.9 °F 74% 29.86 in 10.0 mi South 3.5 mph - N/A   Scattered Clouds
4:53 AM 75.0 °F - 66.9 °F 76% 29.85 in 10.0 mi South 4.6 mph - N/A   Clear
5:53 AM 75.9 °F - 66.9 °F 74% 29.86 in 10.0 mi SSE 6.9 mph - N/A   Clear
6:53 AM 75.9 °F - 66.0 °F 71% 29.88 in 10.0 mi South 8.1 mph - N/A   Clear
7:53 AM 80.1 °F 82.3 °F 66.9 °F 64% 29.89 in 10.0 mi South 4.6 mph - N/A   Clear
8:53 AM 84.0 °F 86.3 °F 66.0 °F 55% 29.90 in 10.0 mi Calm Calm - N/A   Clear
9:53 AM 86.0 °F 87.3 °F 64.0 °F 48% 29.92 in 10.0 mi SE 11.5 mph - N/A   Clear
10:53 AM 87.1 °F 88.3 °F 64.0 °F 46% 29.92 in 10.0 mi East 5.8 mph - N/A   Clear
11:53 AM 90.0 °F 91.3 °F 64.0 °F 42% 29.90 in 10.0 mi Variable 4.6 mph - N/A   Clear
12:53 PM 91.9 °F 92.9 °F 63.0 °F 38% 29.87 in 10.0 mi SSE 9.2 mph - N/A   Partly Cloudy
1:53 PM 91.9 °F 92.9 °F 63.0 °F 38% 29.84 in 10.0 mi Calm Calm - N/A   Mostly Cloudy
2:40 PM 93.2 °F 94.1 °F 62.6 °F 36% 29.97 in 10.0 mi Variable 3.5 mph - N/A Thunderstorm Mostly Cloudy
2:53 PM 93.0 °F 93.8 °F 62.1 °F 36% 29.82 in 10.0 mi South 10.4 mph - N/A Thunderstorm Scattered Clouds
3:25 PM 78.8 °F - 69.8 °F 74% 30.02 in 10.0 mi East 27.6 mph 41.4 mph 0.00 in Rain , Thunderstorm Light Thunderstorms and Rain
3:53 PM 77.0 °F - 66.0 °F 69% 29.89 in 10.0 mi ESE 12.7 mph - 0.00 in Rain , Thunderstorm Light Rain
4:12 PM 77.0 °F - 66.2 °F 69% 30.03 in 10.0 mi WSW 12.7 mph 20.7 mph 0.00 in Rain Light Rain
4:38 PM 73.4 °F - 69.8 °F 88% 30.05 in 7.0 mi SW 11.5 mph - 0.00 in Rain , Thunderstorm Thunderstorms and Rain
4:53 PM 73.9 °F - 70.0 °F 87% 29.93 in 6.0 mi West 8.1 mph - 0.04 in Rain Light Rain
5:53 PM 73.9 °F - 71.1 °F 91% 29.92 in 10.0 mi North 5.8 mph - 0.01 in   Partly Cloudy
6:53 PM 75.0 °F - 70.0 °F 84% 29.93 in 10.0 mi South 4.6 mph - N/A   Clear
7:53 PM 75.0 °F - 70.0 °F 84% 29.92 in 10.0 mi Calm Calm - N/A   Clear
8:53 PM 73.9 °F - 71.1 °F 91% 29.93 in 10.0 mi SSW 4.6 mph - N/A   Partly Cloudy
9:53 PM 73.9 °F - 70.0 °F 87% 29.94 in 10.0 mi South 4.6 mph - N/A   Clear
10:53 PM 73.9 °F - 70.0 °F 87% 29.93 in 10.0 mi SW 4.6 mph - N/A   Clear
11:53 PM 75.0 °F - 70.0 °F 84% 29.92 in 10.0 mi Calm Calm - N/A   Clear